Retour au catalogue

STARLINK-37886

ActifCommunicationsVLEO
NORAD 69943·PAYLOAD·🇺🇸 United States

Lancé Jul 9, 2026 depuis Cape Canaveral Space Force Station

Loading…

Prochains Passages (prochaines 24 heures)

TLE

FraisSource: CelesTrak SupGP

Époque: Sep 15, 2026, 04:02 UTC

1 69943C 26157A   26258.16854167  .00090638  00000+0  26755-2 0  2583
2 69943  53.1591 358.3162 0001317  82.4615 106.8660 15.34373930    19

Suivez STARLINK-37886 en temps réel avec AllMySat

Download on the App Store